Home   Weather   Kohtla-Järve   Past weeks

Flag for Estonia Past Weather in Kohtla-Järve, Estonia — Yesterday and Last 2 Weeks

Now
N/A

Overcast.


Feels Like: N/A
Forecast: 51 / 56 °F
Wind: 3 mph from North

Location: Johvi

Current Time: Sep 27, 2016 at 5:05:21 PM

Latest Report: Sep 27, 2016 at 4:00 PM


Visibility: 22 mi

Pressure: 30.33 "Hg

Humidity: N/A

Dew Point: N/A

Location of Kohtla-JärveLocation

Past Weather in Kohtla-Järve — Graph

°F

Kohtla-Järve Temperature Yesterday

Maximum temperature yesterday: 63 °F (at 5:00 PM)
Minimum temperature yesterday: 39 °F (at 6:00 AM)
Average temperature yesterday: 50 °F

High & Low Weather Summary for the Past Weeks

 TemperatureHumidityPressure
High66 °F (Sep 12, 3:00 PM)98% (Sep 27, 3:00 AM)30.36 "Hg (Sep 27, 3:00 AM)
Low39 °F (Sep 20, 2:00 AM)42% (Sep 12, 3:00 PM)29.85 "Hg (Sep 24, 2:00 AM)
Average51 °F82%30.13 "Hg
* Reported Sep 12 3:00 PM — Sep 27 3:00 PM, Kohtla-Järve, Weather by CustomWeather, © 2016

Note: Actual official high and low records may vary slightly from our data, if they occured in-between our weather recording intervals... More about our weather records

Advertising

Kohtla-Järve Weather History for the Previous 24 Hours

Scroll right to see more
 ConditionsComfort  
Time TempWeatherWind HumidityBarometerVisibility
3:00 PM
Tue, Sep 27
N/ALow clouds.3 mphN/A30.36 "Hg17 mi
2:00 PM56 °FLow clouds.2 mph90%30.35 "Hg9 mi
1:00 PM56 °FLow clouds.2 mph92%30.35 "Hg9 mi
12:00 PM57 °FFog.3 mph98%30.34 "Hg6 mi
11:00 AM56 °FLow clouds.2 mph97%30.34 "Hg3 mi
10:00 AM53 °FDuststorm.2 mph98%30.34 "Hg1 mi
9:00 AM53 °FDuststorm.1 mph97%30.34 "Hg1 mi
8:00 AM51 °FDuststorm.No wind97%30.33 "Hg1 mi
7:00 AM50 °FDuststorm.No wind97%30.33 "Hg0 mi
6:00 AM50 °FDuststorm.1 mph97%30.33 "Hg0 mi
5:00 AM49 °FDuststorm.1 mph97%30.34 "Hg1 mi
4:00 AM42 °FFog.1 mph97%30.34 "Hg4 mi
3:00 AM42 °FPassing clouds.1 mph98%30.34 "Hg5 mi
2:00 AM43 °FPassing clouds.1 mph97%30.34 "Hg1 mi
1:00 AM43 °FOvercast.1 mph97%30.34 "Hg2 mi
12:00 AM41 °FDuststorm.No wind97%30.34 "Hg0 mi
11:00 PM
Mon, Sep 26
44 °FClear.1 mph97%30.34 "Hg0 mi
10:00 PM46 °FClear.No wind96%30.34 "Hg1 mi
8:00 PM51 °FClear.1 mph89%30.33 "Hg17 mi
7:00 PM54 °FOvercast.1 mph88%30.33 "Hg22 mi
6:00 PM58 °FPassing clouds.1 mph72%30.32 "Hg25 mi
5:00 PM63 °FSunny.1 mph58%30.31 "Hg28 mi
Weather by CustomWeather, © 2016

See weather overviewHow to use our weather pages